GLOBALSTAR M001 1 25162U 98008A 26035.26213257 -.00000064 00000+0 25208-3 0 9995 2 25162 52.0057 17.7406 0001668 33.7796 339.4149 12.38226722272467 GLOBALSTAR M004 1 25163U 98008B 26035.27407875 -.00000080 00000+0 13502-3 0 9990 2 25163 52.0005 66.1003 0003515 89.3899 351.1127 12.63413978291025 GLOBALSTAR M002 1 25164U 98008C 26035.34755512 -.00000076 00000+0 27845-5 0 9995 2 25164 52.0040 18.0965 0001280 203.7609 156.3152 11.61515111211042 GLOBALSTAR M003 1 25165U 98008D 26035.03730137 -.00000208 00000+0 -12643-2 0 9993 2 25165 51.9858 246.3549 0008873 42.6031 114.5018 12.12030446261330 GLOBALSTAR M014 1 25306U 98023A 26035.13578476 -.00000047 00000+0 56821-3 0 9991 2 25306 51.9851 296.9781 0001803 63.4931 85.8237 11.65484194218217 GLOBALSTAR M006 1 25307U 98023B 26035.31098574 -.00000079 00000+0 -59036-4 0 9996 2 25307 51.9973 357.6814 0002892 164.4323 344.6843 11.58176398243720 GLOBALSTAR M015 1 25308U 98023C 26035.51650493 -.00000116 00000+0 -97609-3 0 9992 2 25308 51.9823 106.2903 0013354 129.9325 243.5932 11.48861889220787 GLOBALSTAR M008 1 25309U 98023D 26035.00675443 -.00000078 00000+0 13880-3 0 9994 2 25309 51.9948 245.9450 0002042 324.0861 183.3109 12.36080274266516 GLOBALSTAR M023 1 25621U 99004A 26035.39012890 -.00000054 00000+0 27722-3 0 9998 2 25621 52.0110 66.3704 0009368 279.8103 93.1621 12.62516505245061 GLOBALSTAR M040 1 25622U 99004B 26035.39589832 -.00000089 00000+0 80787-4 0 9993 2 25622 51.9921 70.8482 0001183 162.6138 300.7654 12.62028144244572 GLOBALSTAR M036 1 25623U 99004C 26035.21375008 -.00000048 00000+0 51354-3 0 9995 2 25623 51.9999 348.7366 0010704 133.5811 4.2295 11.86618387206529 GLOBALSTAR M038 1 25624U 99004D 26035.50455223 -.00000054 00000+0 34121-3 0 9996 2 25624 51.9970 122.5161 0002345 162.2570 210.8233 12.32540449231028 GLOBALSTAR M022 1 25649U 99012A 26035.42453172 -.00000099 00000+0 -15180-3 0 9998 2 25649 52.0065 19.5674 0002450 270.7738 257.4149 12.02509333204313 GLOBALSTAR M041 1 25650U 99012B 26035.00446477 -.00000066 00000+0 24931-3 0 9991 2 25650 52.0008 269.2327 0002209 67.7312 292.3758 11.96683513206035 GLOBALSTAR M046 1 25651U 99012C 26035.52430810 -.00000043 00000+0 50874-3 0 9993 2 25651 52.0082 320.9526 0002264 8.3496 163.0830 12.09417170211770 GLOBALSTAR M037 1 25652U 99012D 26035.45908711 -.00000092 00000+0 66961-4 0 9995 2 25652 51.9982 196.6915 0001781 14.1711 3.5582 12.62461036240612 GLOBALSTAR M045 1 25676U 99019A 26035.16212590 -.00000056 00000+0 33546-3 0 9991 2 25676 51.9995 4.0843 0000338 23.1079 349.5943 12.27072305221877 GLOBALSTAR M019 1 25677U 99019B 26035.47592677 -.00000003 00000+0 90733-3 0 9996 2 25677 51.9863 149.9041 0002104 88.5935 349.6389 12.13879851213355 GLOBALSTAR M044 1 25678U 99019C 26035.46779802 -.00000117 00000+0 -47071-3 0 9997 2 25678 51.9963 130.3440 0006892 126.7656 316.1290 11.90263236198986 GLOBALSTAR M042 1 25679U 99019D 26035.51672471 -.00000108 00000+0 -15266-3 0 9999 2 25679 52.0012 115.0742 0003238 70.5815 31.3458 12.22095413213664 GLOBALSTAR M025 1 25770U 99031A 26035.19755086 -.00000069 00000+0 -42812-4 0 9997 2 25770 51.9853 341.8016 0001976 156.7799 340.8994 11.22561203507769 GLOBALSTAR M049 1 25771U 99031B 26035.33273663 -.00000022 00000+0 15072-2 0 9994 2 25771 51.9898 27.9141 0002873 53.8786 306.2276 11.12121734143259 GLOBALSTAR M047 1 25772U 99031C 26035.22131094 -.00000063 00000+0 17976-3 0 9995 2 25772 51.9867 2.9691 0016313 302.3612 57.5614 11.31931952497383 GLOBALSTAR M052 1 25773U 99031D 26035.50202981 -.00000091 00000+0 -84482-3 0 9999 2 25773 51.9858 132.9399 0003028 179.7295 266.4153 11.15063588504421 GLOBALSTAR M035 1 25851U 99037A 26035.09581208 -.00000009 00000+0 20725-2 0 9995 2 25851 51.9922 257.7877 0013897 2.8964 161.2872 11.04541868121886 GLOBALSTAR M032 1 25852U 99037B 26035.39365416 -.00000132 00000+0 -20927-2 0 9992 2 25852 51.9959 66.2972 0012816 197.3917 162.6445 11.19068158160789 GLOBALSTAR M051 1 25853U 99037C 26035.40089376 -.00000089 00000+0 -43211-3 0 9996 2 25853 51.9763 200.7038 0001152 96.6978 263.3964 11.42200076158921 GLOBALSTAR M030 1 25854U 99037D 26035.34206585 -.00000108 00000+0 -69839-3 0 9999 2 25854 51.9912 352.1863 0003744 91.8904 268.2341 11.55108358176872 GLOBALSTAR M048 1 25872U 99041A 26035.50323773 -.00000065 00000+0 12258-3 0 9995 2 25872 51.9358 144.4710 0013062 222.7256 220.6827 11.33861912151331 GLOBALSTAR M026 1 25873U 99041B 26035.35832734 -.00000171 00000+0 -39405-2 0 9992 2 25873 52.0047 12.7066 0001810 303.6652 207.4280 11.06840717174192 GLOBALSTAR M043 1 25874U 99041C 26035.04789306 -.00000028 00000+0 11921-2 0 9998 2 25874 51.9382 262.4372 0013598 351.0612 158.4217 11.25697632148986 GLOBALSTAR M028 1 25875U 99041D 26035.49136451 -.00000097 00000+0 16229-4 0 9999 2 25875 51.9599 220.3666 0062761 215.2531 144.4170 12.50595647219246 GLOBALSTAR M024 1 25883U 99043A 26035.48973463 -.00000017 00000+0 17107-2 0 9997 2 25883 51.9974 216.4645 0002664 105.8063 280.1921 11.10168795140661 GLOBALSTAR M027 1 25884U 99043B 26035.47931925 -.00000065 00000+0 -49630-4 0 9996 2 25884 52.0231 301.0555 0021786 7.7984 352.3145 11.04373589166906 GLOBALSTAR M054 1 25885U 99043C 26035.40126979 -.00000077 00000+0 -14883-3 0 9999 2 25885 52.0164 29.5513 0004755 215.8442 294.2892 11.39223545145517 GLOBALSTAR M053 1 25886U 99043D 26035.24443667 -.00000054 00000+0 42065-3 0 9995 2 25886 52.0020 349.8996 0003552 110.4899 30.4984 11.27669776145623 GLOBALSTAR M058 1 25907U 99049A 26035.43610556 -.00000093 00000+0 -11678-3 0 9999 2 25907 51.9910 209.0033 0002182 24.3798 335.7139 11.93208137569267 GLOBALSTAR M050 1 25908U 99049B 26035.40333022 -.00000053 00000+0 39914-3 0 9995 2 25908 51.9959 199.4166 0010029 130.6737 243.9007 12.07464464176242 GLOBALSTAR M033 1 25909U 99049C 26035.31707394 -.00000037 00000+0 52573-3 0 9991 2 25909 51.9919 55.4539 0014222 23.4032 336.7460 12.20302231564085 GLOBALSTAR M055 1 25910U 99049D 26035.36857263 -.00000082 00000+0 10138-3 0 9990 2 25910 52.0027 54.7481 0006790 252.1115 107.8996 12.29440213196849 GLOBALSTAR M057 1 25943U 99058A 26035.28309361 -.00000061 00000+0 28777-3 0 9993 2 25943 51.9993 49.5094 0002701 129.7094 230.3993 12.24832786195371 GLOBALSTAR M059 1 25944U 99058B 26035.43054009 -.00000017 00000+0 85172-3 0 9990 2 25944 52.0034 298.8754 0001137 65.5216 106.1374 11.99992557601927 GLOBALSTAR M056 1 25945U 99058C 26035.07825487 -.00000082 00000+0 58338-4 0 9994 2 25945 51.9975 295.8451 0000639 334.2601 164.1414 12.04784205190570 GLOBALSTAR M031 1 25946U 99058D 26035.53676132 -.00000007 00000+0 84474-3 0 9993 2 25946 51.9943 172.9982 0000335 312.9254 126.8754 12.16048587192810 GLOBALSTAR M039 1 25961U 99062A 26035.39916638 -.00000063 00000+0 22524-3 0 9997 2 25961 51.9847 281.4361 0002985 126.2164 233.8979 12.62340927209547 GLOBALSTAR M034 1 25962U 99062B 26035.41598433 -.00000068 00000+0 21153-3 0 9992 2 25962 51.9867 127.7218 0015025 120.7405 320.0099 11.79455496165794 GLOBALSTAR M029 1 25963U 99062C 26035.42394387 -.00000101 00000+0 -18386-3 0 9999 2 25963 51.9780 186.7261 0002377 185.9270 208.5828 11.99908041197001 GLOBALSTAR M061 1 25964U 99062D 26035.20032363 -.00000080 00000+0 29054-5 0 9990 2 25964 51.9818 315.4008 0006600 42.6511 107.9257 11.76777301148499 GLOBALSTAR M063 1 26081U 00008A 26035.47210093 -.00000092 00000+0 -14223-3 0 9994 2 26081 51.9920 219.8113 0005352 48.4601 331.4590 11.86180905185141 GLOBALSTAR M062 1 26082U 00008B 26035.42854610 -.00000205 00000+0 -76073-3 0 9996 2 26082 51.9845 132.8203 0006806 242.9469 194.8247 12.43479899525516 GLOBALSTAR M060 1 26083U 00008C 26035.54077229 .00000000 00000+0 90427-3 0 9993 2 26083 52.0020 125.3737 0003054 223.6218 238.9942 12.17674820180671 GLOBALSTAR M064 1 26084U 00008D 26035.08938627 -.00000031 00000+0 75050-3 0 9991 2 26084 52.0057 316.9165 0001661 120.0399 240.0599 11.88540298194672 GLOBALSTAR M065 1 31571U 07020A 26034.98386959 -.00000083 00000+0 11834-3 0 9999 2 31571 51.9870 240.7448 0010838 99.9098 47.9199 12.62020008862671 GLOBALSTAR M069 1 31573U 07020C 26035.37733232 -.00000051 00000+0 38177-3 0 9999 2 31573 52.0020 268.0327 0000911 213.0100 318.2954 12.23467902862549 GLOBALSTAR M072 1 31574U 07020D 26035.44744215 -.00000059 00000+0 34651-3 0 9992 2 31574 51.9930 93.6356 0001376 79.1541 19.8727 11.91655406859155 GLOBALSTAR M071 1 31576U 07020F 26035.09084054 -.00000087 00000+0 39499-4 0 9990 2 31576 52.0078 300.9986 0000381 140.0914 358.0484 12.18264791523207 GLOBALSTAR M067 1 32263U 07048A 26035.53795699 -.00000061 00000+0 27066-3 0 9995 2 32263 51.9727 76.0451 0001586 121.9425 43.6791 12.40684474838320 GLOBALSTAR M070 1 32264U 07048B 26034.75926880 -.00000109 00000+0 -29968-4 0 9995 2 32264 51.9743 143.0323 0000616 108.9243 50.2219 12.62329770842916 GLOBALSTAR M066 1 32265U 07048C 26035.33948968 -.00000089 00000+0 46177-4 0 9999 2 32265 51.9597 79.2807 0005237 125.6219 315.7497 12.30384160843876 GLOBALSTAR M068 1 32266U 07048D 26035.15308823 -.00000080 00000+0 13488-3 0 9999 2 32266 51.9905 315.1388 0000747 328.0506 172.8851 12.62839326846867 GLOBALSTAR M079 1 37188U 10054A 26035.50688201 -.00000097 00000+0 37570-4 0 9995 2 37188 52.0028 152.5676 0001031 99.6783 340.3532 12.62270183705795 GLOBALSTAR M074 1 37189U 10054B 26035.53355873 -.00000098 00000+0 32367-4 0 9995 2 37189 52.0006 151.7738 0000963 117.5849 322.7720 12.62265685706401 GLOBALSTAR M076 1 37190U 10054C 26035.48012562 -.00000104 00000+0 -37801-5 0 9994 2 37190 52.0018 152.1285 0001139 113.0281 324.0238 12.62270002706111 GLOBALSTAR M077 1 37191U 10054D 26035.27428528 -.00000066 00000+0 22552-3 0 9996 2 37191 51.9957 156.8518 0001502 111.0155 260.2220 11.68178381705612 GLOBALSTAR M075 1 37192U 10054E 26035.40135161 -.00000118 00000+0 -76943-4 0 9993 2 37192 51.9926 194.4955 0000935 94.5810 285.1873 12.62264058705177 GLOBALSTAR M073 1 37193U 10054F 26035.49925728 -.00000077 00000+0 14797-3 0 9990 2 37193 52.0060 108.1968 0000869 112.4824 350.8505 12.62269155707173 GLOBALSTAR M083 1 37739U 11033A 26035.44245572 -.00000100 00000+0 22272-4 0 9996 2 37739 51.9867 56.7788 0000588 100.0503 46.8052 12.62266902676187 GLOBALSTAR M088 1 37740U 11033B 26035.50088681 -.00000079 00000+0 13605-3 0 9995 2 37740 52.0239 322.7084 0000554 64.1882 107.9205 12.62260934671736 GLOBALSTAR M091 1 37741U 11033C 26035.43473709 -.00000076 00000+0 15483-3 0 9990 2 37741 52.0002 286.0744 0000876 60.1634 110.3363 12.62269434672512 GLOBALSTAR M085 1 37742U 11033D 26035.34242020 -.00000107 00000+0 -18340-4 0 9993 2 37742 52.0100 237.5293 0001100 71.8065 99.4708 12.62269031673019 GLOBALSTAR M081 1 37743U 11033E 26035.49675867 -.00000096 00000+0 45736-4 0 9994 2 37743 51.9934 239.6457 0001113 83.1959 310.4311 12.62262193673186 GLOBALSTAR M089 1 37744U 11033F 26035.45743947 -.00000120 00000+0 -88415-4 0 9996 2 37744 51.9909 193.9485 0001023 113.8883 280.7981 12.62264082674024 GLOBALSTAR M084 1 38040U 11080A 26035.49797211 -.00000090 00000+0 78695-4 0 9999 2 38040 52.0014 61.2358 0000611 140.1852 18.3538 12.62267627652005 GLOBALSTAR M080 1 38041U 11080B 26035.37784207 -.00000081 00000+0 12546-3 0 9990 2 38041 52.0064 63.2742 0000284 38.8745 63.1081 12.62266021652110 GLOBALSTAR M082 1 38042U 11080C 26035.32246501 -.00000103 00000+0 26813-5 0 9995 2 38042 52.0095 18.9291 0000431 34.5189 105.5339 12.62267146652813 GLOBALSTAR M092 1 38043U 11080D 26035.50565365 -.00000079 00000+0 14053-3 0 9991 2 38043 52.0081 108.7613 0000663 117.6318 255.3435 12.62269887651295 GLOBALSTAR M090 1 38044U 11080E 26035.35100679 -.00000104 00000+0 92363-6 0 9990 2 38044 52.0147 12.7562 0000515 69.9542 78.5729 12.62266396652935 GLOBALSTAR M086 1 38045U 11080F 26035.29311593 -.00000095 00000+0 47527-4 0 9992 2 38045 51.9919 13.0783 0001450 106.3560 31.9598 12.62282350652873 GLOBALSTAR M097 1 39072U 13005A 26035.05388700 -.00000081 00000+0 12899-3 0 9998 2 39072 52.0053 288.6069 0000959 71.5398 288.5573 12.62268544600096 GLOBALSTAR M093 1 39073U 13005B 26035.34440027 -.00000075 00000+0 15873-3 0 9990 2 39073 52.0105 281.0199 0001204 67.2570 292.8424 12.62272571600081 GLOBALSTAR M094 1 39074U 13005C 26035.42363223 -.00000119 00000+0 -84374-4 0 9995 2 39074 51.9935 195.0254 0001200 88.7300 271.3704 12.62266818601702 GLOBALSTAR M096 1 39075U 13005D 26035.27831345 -.00000097 00000+0 36894-4 0 9992 2 39075 52.0050 244.1650 0001132 73.3443 286.7548 12.62263018600604 GLOBALSTAR M078 1 39076U 13005E 26035.17282963 -.00000025 00000+0 44224-3 0 9994 2 39076 51.9898 328.6804 0001015 7.5657 352.5225 12.62276604599211 GLOBALSTAR M095 1 39077U 13005F 26035.19934727 -.00000080 00000+0 13126-3 0 9997 2 39077 52.0105 326.0157 0000940 41.7139 318.3799 12.62268143599078 GLOBALSTAR M087 1 52888U 22064A 26035.45012559 -.00000082 00000+0 12181-3 0 9998 2 52888 51.9998 106.5657 0000708 97.0825 263.0123 12.62266664174370